This demonstration page uses our WeatherBlox Daily Observations layout. Learn more.

Left ArrowRight Arrow

41.55636, -103.73856

Hourly Observations for August 13, 2021

Temp ( °F °C ) Dew Point ( °F °C ) Humidity (%) Winds ( mph kmh ) Pressure ( in mb ) Visibility ( mi km ) Precip ( " mm )
12:58 am 00:58 Mostly Clear 65 18.3 40 4.3 40 40 SSE 18 30 30.13 1020 10 16 0.00 0.00
1:58 am 01:58 Clear 63 17 42 5.4 47 47 SE 14 22 30.13 1020 10 16 0.00 0.00
2:58 am 02:58 Clear 62 16.5 42 5.6 49 49 SSE 13 20 30.13 1020 10 16 0.00 0.00
3:58 am 03:58 Clear 59 15.1 43 6 55 55 E 5 7 30.14 1021 10 16 0.00 0.00
4:58 am 04:58 Clear 60 15.3 45 7 58 58 SSE 9 15 30.14 1021 10 16 0.00 0.00
5:58 am 05:58 Clear 56 13.3 44 6.7 65 65 ESE 6 9 30.18 1022 10 16 0.00 0.00
6:58 am 06:58 Sunny 56 13.2 44 6.7 65 65 E 5 7 30.22 1023 10 16 0.00 0.00
7:58 am 07:58 Sunny 62 16.9 47 8.5 58 58 ESE 3 6 30.25 1024 10 16 0.00 0.00
8:58 am 08:58 Sunny 70 21 47 8.4 45 45 SE 15 24 30.26 1025 10 16 0.00 0.00
9:58 am 09:58 Sunny 72 22.4 53 11.7 51 51 SSE 18 30 30.24 1024 10 16 0.00 0.00
10:58 am 10:58 Mostly Cloudy 70 21.3 54 12.1 56 56 S 16 26 30.26 1025 10 16 0.00 0.00
11:58 am 11:58 Mostly Cloudy 73 22.9 55 12.9 53 53 SSE 10 17 30.25 1024 10 16 0.00 0.00
12:58 pm 12:58 Mostly Cloudy 76 24.3 56 13.1 50 50 SSE 12 19 30.22 1023 10 16 0.00 0.00
1:58 pm 13:58 Partly Cloudy 78 25.5 55 13 46 46 S 14 22 30.20 1023 10 16 0.00 0.00
2:58 pm 14:58 Mostly Sunny 81 27.3 55 12.5 40 40 SE 10 17 30.17 1022 10 16 0.00 0.00
3:58 pm 15:58 Mostly Sunny 81 27 54 12.2 40 40 SE 13 20 30.17 1022 10 16 0.00 0.00
4:58 pm 16:58 Sunny 81 27.4 54 12.2 39 39 SE 14 22 30.16 1021 10 16 0.00 0.00
5:58 pm 17:58 Sunny 80 26.8 54 12 40 40 SE 13 20 30.16 1021 10 16 0.00 0.00
6:58 pm 18:58 Mostly Sunny 78 25.8 55 12.8 45 45 SE 8 13 30.16 1021 10 16 0.00 0.00
7:58 pm 19:58 Mostly Clear 73 22.9 56 13.2 54 54 SE 13 20 30.16 1022 10 16 0.00 0.00
8:58 pm 20:58 Clear 71 21.4 56 13.5 61 61 SE 13 20 30.17 1022 10 16 0.00 0.00
9:58 pm 21:58 Clear 69 20.4 56 13.5 65 65 SE 13 20 30.18 1022 10 16 0.00 0.00
10:58 pm 22:58 Clear 70 20.9 57 13.8 64 64 SSE 15 24 30.17 1022 10 16 0.00 0.00
11:58 pm 23:58 Mostly Cloudy 71 21.4 57 13.8 62 62 SSE 18 30 30.17 1022 10 16 0.00 0.00

Powered by AerisWeather